Location: Newark
(39.8867°N, 94.3600°W)
Time: 14:26:42
(UTC+00:00)

Envisat - Visible Passes

Search period start: 19 January 2020 00:00
Search period end: 29 January 2020 00:00
Orbit: 764 x 766 km, 98.1° (Epoch: 19 January)

Date Brightness Start Highest point End Pass type
(mag) Time Alt. Az. Time Alt. Az. Time Alt. Az.
19 Jan 5.4 01:09:36 10° SSW 01:13:41 24° W 01:17:47 10° NW visible
19 Jan 6.2 11:41:07 10° ENE 11:43:34 13° E 11:46:02 10° ESE visible
20 Jan 3.8 00:31:45 10° S 00:36:43 55° W 00:41:43 10° NNW visible
20 Jan 3.9 12:41:17 10° NNE 12:46:16 55° E 12:51:14 10° S visible
20 Jan 3.0 23:54:56 10° SSE 23:59:57 66° ENE 00:05:00 10° N visible
21 Jan 6.2 01:36:58 10° WSW 01:39:25 13° W 01:41:53 10° WNW visible
21 Jan 5.5 12:05:13 10° NE 12:09:19 24° E 12:13:23 10° SSE visible
22 Jan 5.0 00:57:51 10° SSW 01:02:19 31° W 01:06:48 10° NW visible
22 Jan 6.5 11:31:42 10° E 11:32:09 10° E 11:32:35 10° E visible
23 Jan 3.3 00:20:22 10° S 00:25:25 70° WSW 00:30:30 10° NNW visible
23 Jan 4.4 12:30:07 10° NNE 12:34:57 43° E 12:39:45 10° S visible
23 Jan 3.2 23:43:48 10° SSE 23:48:42 52° ENE 23:53:37 10° N visible
24 Jan 5.9 01:24:41 10° SW 01:28:00 17° W 01:31:20 10° NW visible
24 Jan 5.9 11:54:20 10° NE 11:57:56 19° E 12:01:29 10° SE visible
25 Jan 4.5 00:46:15 10° SSW 00:50:58 39° W 00:55:43 10° NNW visible
25 Jan 3.3 12:55:23 10° NNE 13:00:29 77° ESE 13:05:34 10° S visible
26 Jan 3.0 00:09:02 10° SSE 00:14:07 89° W 00:19:14 10° NNW visible
26 Jan 4.9 12:19:01 10° NNE 12:23:36 33° E 12:28:09 10° SSE visible
27 Jan 5.6 01:12:43 10° SW 01:16:37 22° W 01:20:32 10° NW visible
27 Jan 6.1 11:43:41 10° ENE 11:46:31 15° E 11:49:21 10° SE visible
28 Jan 4.0 00:34:43 10° S 00:39:38 50° W 00:44:34 10° NNW visible
28 Jan 3.7 12:44:09 10° NNE 12:49:11 60° E 12:54:11 10° S visible
